[[{"header":{"parameterUnit":"m.s-1","parameterCategory":1,"la1":30.2991,"la2":30.254,"lo1":-89.0895,"lo2":-89.0444,"dy":0.0017,"dx":0.0017,"nx":28,"ny":28,"refTime":"2025-01-17T09:00:00:Z","depth":0,"parameterNumber":2,"parameterNumberName":"U-component_of_WINDS"},"data":[0,0,0,0,0,0,0,0,0,0,0,0,0,0,0,0,0,0,0,0,0,0,0,0,0,0,0,0,0,0,0,0,0,0,0,0,0,0,0,0,0,0,0,0,0,0,0,0,0,0,0,0,0,0,0,0,0,0,4.564,4.564,0,4.5657,4.5657,4.5658,4.5578,4.5575,4.5573,4.5571,4.5587,4.5589,4.5592,0,0,0,0,0,0,0,0,0,0,0,0,0,4.5538,4.5541,4.564,4.564,4.5641,4.5657,4.5657,4.5658,4.5578,4.5575,4.5572,4.557,4.5586,4.5589,4.5592,0,0,0,0,0,0,0,0,0,0,0,0,0,4.5572,4.5541,4.564,4.5603,4.56,4.5657,4.5657,4.5658,4.5579,4.5575,4.5572,4.5568,4.5585,4.5588,4.5592,4.5686,0,0,4.5604,4.5606,0,0,0,0,0,0,0,0,4.557,4.5576,4.5608,4.5606,4.5602,4.5612,4.5627,4.5667,4.5579,4.5587,4.5571,4.5567,4.5598,4.56,4.5611,4.5686,4.5687,4.5604,4.5607,4.5608,4.5609,0,0,0,0,0,0,0,4.5568,4.5574,4.5647,4.5609,4.5605,4.5585,4.5586,4.5634,4.5611,4.5586,4.558,4.5583,4.5595,4.5607,4.5611,4.5687,4.5604,4.5608,4.561,4.5612,4.5842,4.5846,0,0,0,0,0,0,4.5571,4.5573,4.5646,4.5647,4.5577,4.559,4.5591,4.5612,4.5611,4.5607,4.5586,4.5579,4.5603,4.5606,4.5611,4.5722,4.5608,4.5612,4.5614,4.5839,4.5843,4.5847,0,0,0,0,0,0,4.5569,4.5578,4.5646,4.5609,4.5616,4.5595,4.562,4.5614,4.5626,4.5611,4.5606,4.5603,4.56,4.5606,4.5668,4.5721,4.5614,4.5617,4.5834,4.584,4.5845,4.5943,0,0,0,0,0,0,4.5566,4.5578,4.5613,4.561,4.5618,4.5703,4.5623,4.5617,4.5633,4.5625,4.5625,4.5622,4.5598,4.5663,4.5672,4.5724,4.562,4.5829,4.5837,4.5843,4.5935,4.5951,4.5965,0,0,0,0,0,4.5563,4.5639,4.5615,4.5624,4.5662,4.5706,4.5711,4.5681,4.5638,4.5673,4.5664,4.5622,4.5714,4.567,4.568,4.5734,4.5826,4.5835,4.5843,4.5928,4.5948,4.5965,0,0,0,0,0,0,4.5647,4.5638,4.5611,4.5689,4.5699,4.5692,4.5736,4.5703,4.5725,4.5716,4.5679,4.5679,4.5749,4.5747,4.5699,4.5825,4.5762,4.5773,4.5824,4.5843,4.5858,4.5856,4.5623,0,0,0,0,0,4.5675,4.5712,4.5701,4.5771,4.5778,4.5757,4.5774,4.5752,4.576,4.5764,4.5759,4.5769,4.58,4.5821,4.5849,4.5934,4.5934,4.5977,4.5992,4.6004,4.6014,4.6061,4.6081,4.5875,4.5875,4.5875,0,0,4.5732,4.5731,4.5757,4.5788,4.5793,4.5833,4.576,4.5805,4.5834,4.577,4.583,4.5827,4.5835,4.5911,4.5944,4.5912,4.6071,4.6015,4.6025,4.6028,4.6072,4.6092,4.6109,4.5881,4.588,4.5879,0,0,4.5857,4.586,4.5919,4.5926,4.5936,4.5922,4.5936,4.5935,4.5931,4.5991,4.5945,4.5979,4.6032,4.6041,4.6053,4.6184,4.6147,4.6194,4.6273,4.632,4.6336,4.635,4.6398,4.6415,4.6204,4.6204,4.6204,0,4.5926,4.5985,4.5953,4.6002,4.6017,4.5963,4.6023,4.6031,4.6049,4.6061,4.6026,4.6094,4.6096,4.6173,4.6206,4.6216,4.6232,4.6194,4.6336,4.635,4.6363,4.6408,4.6426,4.621,4.6209,4.6209,4.6208,0,4.6071,4.6112,4.6158,4.6179,4.62,4.6253,4.6231,4.6255,4.6231,4.6221,4.6283,4.6284,4.6312,4.6328,4.6304,4.6403,4.6383,4.6343,4.6278,4.6389,4.6431,4.6448,4.6218,4.6216,4.6214,4.6213,0,0,4.6247,4.6252,4.6269,4.6279,4.6287,4.6318,4.637,4.6398,4.6421,4.6435,4.6479,4.6527,4.649,4.6503,4.648,4.6521,4.6627,4.6475,4.6475,4.6504,4.6737,4.6768,4.6789,4.6602,4.6605,4.6608,4.6737,0,4.6371,4.646,4.6435,4.6525,4.6563,4.6514,4.6559,4.6569,4.6562,4.6593,4.6584,4.662,4.6568,4.6576,4.6614,4.6606,4.6673,4.6596,4.6642,4.6645,4.6642,4.681,4.6843,4.6964,4.6753,4.6756,4.6758,0,4.6526,4.6549,4.6643,4.6647,4.6662,4.6703,4.6728,4.6759,4.677,4.6761,4.6778,4.6747,4.6799,4.6735,4.6806,4.6755,4.6772,4.6772,4.6776,4.6779,4.6708,4.6819,4.7002,4.7021,4.6783,4.6781,4.6779,0,4.6647,4.6701,4.6765,4.6774,4.678,4.6811,4.6814,4.6821,4.6841,4.6863,4.6875,4.6902,4.6918,4.694,4.6917,4.6873,4.6993,4.6926,4.6988,4.6989,4.7015,4.7014,4.7204,4.7026,4.7026,4.7025,4.7025,0,4.6787,4.6847,4.682,4.6859,4.6925,4.6896,4.6962,4.696,4.6967,4.7006,4.6964,4.7001,4.6969,4.7003,4.6986,4.7049,4.7055,4.705,4.7045,4.7055,4.7055,4.7065,4.7057,4.703,4.7029,4.7028,4.7027,0,4.6934,4.6917,4.6984,4.6985,4.6986,4.7035,4.7035,4.7072,4.7062,4.7112,4.7121,4.7106,4.7144,4.7124,4.7163,4.7152,4.7233,4.7216,4.723,4.7226,4.7289,4.7283,4.7493,4.7519,4.7324,4.7325,4.7327,0,4.7024,4.707,4.7076,4.7099,4.7106,4.7144,4.7164,4.7137,4.716,4.7177,4.7212,4.7247,4.7274,4.7338,4.733,4.736,4.7344,4.7415,4.7348,4.7357,4.7346,4.7344,4.7349,4.7429,4.7431,4.7433,4.7434,0,4.7188,4.7179,4.721,4.7239,4.7265,4.7286,4.7304,4.7326,4.7299,4.7327,4.7367,4.7388,4.7429,4.7464,4.7491,4.7494,4.7461,4.7456,4.7472,4.7482,4.7488,4.7487,4.7268,4.7451,4.7449,4.7448,4.7447,4.7446,4.731,4.7349,4.736,4.7396,4.7408,4.7426,4.7461,4.7457,4.7489,4.7522,4.7504,4.755,4.7561,4.7594,4.7602,4.7638,4.761,4.7633,4.7638,4.7645,4.7654,4.7483,4.7643,4.7642,4.7642,4.7642,4.7641,0,4.7472,4.7477,4.7512,4.7539,4.7569,4.7535,4.7554,4.7581,4.7623,4.7636,4.7664,4.771,4.7745,4.7741,4.7773,4.7803,4.7789,4.7813,4.781,4.7812,4.7677,4.766,4.7824,4.7824,4.7824,4.7824,4.7824,4.7824,4.756,4.7624,4.7617,4.7687,4.7691,4.7738,4.7751,4.7768,4.7779,4.7833,4.7863,4.786,4.7867,4.79,4.7931,4.7929,4.7943,4.7973,4.7965,4.7839,4.7821,4.7804,4.7788,4.7976,4.7976,4.8097,4.8098,4.8099]},{"header":{"parameterUnit":"m.s-1","parameterCategory":1,"la1":30.2991,"la2":30.254,"lo1":-89.0895,"lo2":-89.0444,"dy":0.0017,"dx":0.0017,"nx":28,"ny":28,"refTime":"2025-01-17T09:00:00:Z","depth":0,"parameterNumber":3,"parameterNumberName":"V-component_of_WINDS"},"data":[0,0,0,0,0,0,0,0,0,0,0,0,0,0,0,0,0,0,0,0,0,0,0,0,0,0,0,0,0,0,0,0,0,0,0,0,0,0,0,0,0,0,0,0,0,0,0,0,0,0,0,0,0,0,0,0,0,0,-6.3004,-6.3005,0,-6.3131,-6.3132,-6.3134,-6.3118,-6.3116,-6.3113,-6.3112,-6.3235,-6.324,-6.3245,0,0,0,0,0,0,0,0,0,0,0,0,0,-6.2743,-6.2748,-6.3004,-6.3006,-6.3007,-6.3131,-6.3133,-6.3134,-6.3118,-6.3115,-6.3113,-6.3111,-6.3233,-6.324,-6.3246,0,0,0,0,0,0,0,0,0,0,0,0,0,-6.2861,-6.2749,-6.3004,-6.3014,-6.3016,-6.313,-6.3133,-6.3135,-6.3118,-6.3115,-6.3112,-6.3109,-6.3231,-6.3239,-6.3247,-6.3357,0,0,-6.3271,-6.3274,0,0,0,0,0,0,0,0,-6.2855,-6.2871,-6.3011,-6.3014,-6.3016,-6.3105,-6.3086,-6.3209,-6.3119,-6.3079,-6.3111,-6.3108,-6.3194,-6.3205,-6.3235,-6.3362,-6.3368,-6.3271,-6.3276,-6.3279,-6.3282,0,0,0,0,0,0,0,-6.2847,-6.2865,-6.3054,-6.3013,-6.3016,-6.3011,-6.3024,-6.3109,-6.3152,-6.3083,-6.3082,-6.3097,-6.3195,-6.3228,-6.3238,-6.337,-6.3271,-6.3278,-6.3283,-6.3286,-6.3596,-6.3599,0,0,0,0,0,0,-6.2836,-6.2859,-6.305,-6.3058,-6.2926,-6.3018,-6.3033,-6.308,-6.3151,-6.3159,-6.31,-6.3096,-6.3216,-6.3229,-6.3242,-6.3377,-6.3279,-6.3287,-6.3291,-6.3592,-6.3596,-6.36,0,0,0,0,0,0,-6.2831,-6.2854,-6.3045,-6.2958,-6.2982,-6.3026,-6.3078,-6.3084,-6.3117,-6.3165,-6.3172,-6.3126,-6.3214,-6.3231,-6.3329,-6.3381,-6.329,-6.3297,-6.3588,-6.3593,-6.3598,-6.3647,0,0,0,0,0,0,-6.2823,-6.2852,-6.2895,-6.2959,-6.2987,-6.3131,-6.3082,-6.3089,-6.3131,-6.3127,-6.3191,-6.3198,-6.3213,-6.3318,-6.3337,-6.339,-6.3303,-6.3583,-6.359,-6.3597,-6.3641,-6.3654,-6.3664,0,0,0,0,0,-6.2814,-6.2902,-6.2897,-6.292,-6.3042,-6.3134,-6.315,-6.3167,-6.3135,-6.3179,-6.321,-6.3196,-6.3373,-6.3328,-6.335,-6.3406,-6.358,-6.3588,-6.3596,-6.3636,-6.3651,-6.3664,0,0,0,0,0,0,-6.2839,-6.291,-6.2906,-6.3017,-6.307,-6.3131,-6.3186,-6.3182,-6.3243,-6.3237,-6.3253,-6.3268,-6.3367,-6.3396,-6.3345,-6.3517,-6.3472,-6.3484,-6.3495,-6.351,-6.3521,-6.3512,-6.331,0,0,0,0,0,-6.2858,-6.2929,-6.2986,-6.3079,-6.3106,-6.3142,-6.3183,-6.3192,-6.3246,-6.3268,-6.3306,-6.3358,-6.3425,-6.3469,-6.3533,-6.3645,-6.3659,-6.3695,-6.3706,-6.3716,-6.3726,-6.3789,-6.3806,-6.3626,-6.3626,-6.3626,0,0,-6.2897,-6.2945,-6.2988,-6.3085,-6.3127,-6.32,-6.3161,-6.3238,-6.3291,-6.3279,-6.3375,-6.3405,-6.3464,-6.357,-6.3619,-6.3597,-6.3779,-6.3726,-6.3733,-6.3739,-6.3799,-6.3816,-6.3832,-6.3632,-6.3631,-6.363,0,0,-6.3005,-6.3048,-6.3131,-6.3175,-6.3241,-6.3264,-6.3284,-6.3347,-6.3367,-6.3465,-6.3458,-6.352,-6.3635,-6.3679,-6.3715,-6.3843,-6.3833,-6.3863,-6.3923,-6.3985,-6.3999,-6.4011,-6.4058,-6.4074,-6.3874,-6.3874,-6.3874,0,-6.3044,-6.3155,-6.3174,-6.3253,-6.3296,-6.3292,-6.3376,-6.3416,-6.3499,-6.3528,-6.3503,-6.365,-6.3689,-6.3806,-6.3838,-6.3868,-6.3891,-6.3856,-6.3996,-6.4008,-6.402,-6.4065,-6.4082,-6.3877,-6.3877,-6.3876,-6.3876,0,-6.32,-6.3277,-6.3336,-6.3419,-6.3469,-6.355,-6.358,-6.3628,-6.3633,-6.3659,-6.3759,-6.3806,-6.3881,-6.391,-6.3914,-6.4028,-6.4013,-6.3992,-6.3947,-6.4041,-6.4083,-6.41,-6.3882,-6.3881,-6.388,-6.3879,0,0,-6.3326,-6.3421,-6.3443,-6.3481,-6.3554,-6.3613,-6.3694,-6.377,-6.3811,-6.3868,-6.3936,-6.4036,-6.4018,-6.406,-6.4069,-6.4123,-6.4222,-6.4095,-6.4097,-6.4118,-6.4352,-6.4368,-6.4388,-6.4216,-6.422,-6.4222,-6.4348,0,-6.3442,-6.3588,-6.3609,-6.3737,-6.3808,-6.3806,-6.3877,-6.3928,-6.3956,-6.4019,-6.4047,-6.4118,-6.4088,-6.4114,-6.4167,-6.4199,-6.427,-6.419,-6.4279,-6.4282,-6.4265,-6.441,-6.4426,-6.4542,-6.4364,-6.4367,-6.4369,0,-6.3596,-6.3662,-6.3798,-6.3864,-6.3894,-6.3958,-6.403,-6.4091,-6.415,-6.4166,-6.4215,-6.4218,-6.4301,-6.4253,-6.4367,-6.4313,-6.4351,-6.4372,-6.4377,-6.4386,-6.4331,-6.4423,-6.4579,-6.4597,-6.4395,-6.4393,-6.4391,0,-6.3676,-6.3797,-6.3895,-6.3928,-6.4007,-6.4052,-6.4086,-6.4142,-6.4188,-6.425,-6.428,-6.435,-6.4389,-6.4443,-6.4465,-6.4428,-6.4579,-6.4532,-6.4594,-6.4594,-6.4626,-6.4623,-6.4791,-6.4649,-6.4649,-6.4649,-6.4648,0,-6.3803,-6.3887,-6.3933,-6.3993,-6.4087,-6.4109,-6.4201,-6.4234,-6.4284,-6.435,-6.4351,-6.4412,-6.4438,-6.4503,-6.452,-6.4614,-6.463,-6.4645,-6.4649,-6.4646,-6.4644,-6.467,-6.4663,-6.4653,-6.4652,-6.4651,-6.465,0,-6.3908,-6.3942,-6.4049,-6.4116,-6.4134,-6.4201,-6.4257,-6.4315,-6.4343,-6.4426,-6.4447,-6.4489,-6.4566,-6.4594,-6.4686,-6.4698,-6.4807,-6.4803,-6.4788,-6.4789,-6.4849,-6.4844,-6.504,-6.5068,-6.4907,-6.4909,-6.491,0,-6.3987,-6.4052,-6.4127,-6.4173,-6.421,-6.4283,-6.433,-6.4355,-6.4404,-6.4478,-6.4527,-6.4604,-6.4668,-6.479,-6.4828,-6.49,-6.4898,-6.4962,-6.4909,-6.4904,-6.49,-6.4897,-6.4904,-6.4972,-6.4974,-6.4975,-6.4976,0,-6.4125,-6.4139,-6.4208,-6.4285,-6.4342,-6.4402,-6.446,-6.4497,-6.453,-6.4585,-6.4666,-6.4715,-6.4812,-6.4888,-6.4962,-6.4996,-6.4992,-6.4993,-6.5011,-6.5009,-6.4998,-6.5006,-6.4816,-6.4988,-6.4987,-6.4986,-6.4985,-6.4985,-6.422,-6.4279,-6.4342,-6.4419,-6.4466,-6.4522,-6.458,-6.4617,-6.4685,-6.4768,-6.4777,-6.4864,-6.4923,-6.5022,-6.5059,-6.5126,-6.5109,-6.5135,-6.5141,-6.5148,-6.5153,-6.4987,-6.514,-6.5139,-6.5139,-6.5139,-6.5139,0,-6.4359,-6.44,-6.4471,-6.4555,-6.4616,-6.461,-6.4675,-6.4726,-6.4803,-6.4859,-6.4922,-6.5015,-6.5091,-6.5136,-6.5211,-6.5256,-6.5256,-6.5275,-6.5272,-6.528,-6.5164,-6.5141,-6.5274,-6.5274,-6.5274,-6.5274,-6.5274,-6.5274,-6.4438,-6.4538,-6.456,-6.4683,-6.4723,-6.481,-6.4848,-6.4899,-6.4944,-6.5049,-6.5113,-6.5143,-6.5194,-6.5274,-6.5342,-6.5354,-6.5381,-6.5402,-6.5412,-6.5302,-6.5288,-6.5275,-6.5254,-6.5408,-6.5408,-6.5523,-6.5524,-6.5524]}]]